Radiation Dose measured at Intake/Vertical shaft monitor
Date,Time,Intake(cps),Vertical shaft(cps),Rain
2024/03/14,00:00,5.2,4.7,No
2024/03/14,00:10,5.2,4.7,No
2024/03/14,00:20,5.1,4.6,No
2024/03/14,00:30,5.2,4.6,No
2024/03/14,00:40,5.1,4.5,No
2024/03/14,00:50,5.3,4.5,No
2024/03/14,01:00,5.3,4.6,No
2024/03/14,01:10,5.4,4.7,No
2024/03/14,01:20,5.3,4.7,No
2024/03/14,01:30,5.3,4.6,No
2024/03/14,01:40,5.2,4.6,No
2024/03/14,01:50,5.1,4.5,No
2024/03/14,02:00,5.1,4.4,No
2024/03/14,02:10,5.2,4.6,No
2024/03/14,02:20,5.2,4.6,No
2024/03/14,02:30,5.3,4.7,No
2024/03/14,02:40,5.2,4.5,No
2024/03/14,02:50,5.1,4.6,No
2024/03/14,03:00,5.2,4.6,No
2024/03/14,03:10,5.2,4.7,No
2024/03/14,03:20,5.1,4.6,No
2024/03/14,03:30,5.1,4.7,No
2024/03/14,03:40,5.1,4.6,No
2024/03/14,03:50,5.4,4.6,No
2024/03/14,04:00,5.1,4.7,No
2024/03/14,04:10,5.2,4.7,No
2024/03/14,04:20,5.3,4.7,No
2024/03/14,04:30,5.2,4.7,No
2024/03/14,04:40,5.1,4.5,No
2024/03/14,04:50,5.2,4.6,No
2024/03/14,05:00,5.2,4.8,No
2024/03/14,05:10,5.2,4.6,No
2024/03/14,05:20,5.1,4.5,No
2024/03/14,05:30,5.2,4.5,No
2024/03/14,05:40,5.1,4.5,No
2024/03/14,05:50,5.0,4.6,No
2024/03/14,06:00,5.1,4.5,No
2024/03/14,06:10,5.1,4.6,No
2024/03/14,06:20,5.1,4.6,No
2024/03/14,06:30,5.1,4.5,No
2024/03/14,06:40,5.2,4.6,No
2024/03/14,06:50,5.3,4.5,No
2024/03/14,07:00,5.2,4.5,No
2024/03/14,07:10,5.2,4.6,No
2024/03/14,07:20,5.2,4.6,No
2024/03/14,07:30,5.2,4.6,No
2024/03/14,07:40,5.1,4.6,No
2024/03/14,07:50,5.1,4.6,No
2024/03/14,08:00,5.2,4.6,No
2024/03/14,08:10,5.1,4.6,No
2024/03/14,08:20,5.2,4.7,No
2024/03/14,08:30,5.2,4.7,No
2024/03/14,08:40,5.2,4.7,No
2024/03/14,08:50,5.1,4.6,No
2024/03/14,09:00,5.4,4.6,No
2024/03/14,09:10,5.3,4.7,No
2024/03/14,09:20,5.1,4.8,No
2024/03/14,09:30,5.4,4.7,No
2024/03/14,09:40,5.2,4.7,No
2024/03/14,09:50,5.2,4.5,No
2024/03/14,10:00,5.2,4.5,No
2024/03/14,10:10,5.3,4.5,No
2024/03/14,10:20,5.3,4.7,No
2024/03/14,10:30,5.3,4.7,No
2024/03/14,10:40,5.2,4.6,No
2024/03/14,10:50,5.4,4.6,No
2024/03/14,11:00,5.3,4.7,No
2024/03/14,11:10,5.3,4.6,No
2024/03/14,11:20,5.3,4.6,No
2024/03/14,11:30,5.4,4.7,No
2024/03/14,11:40,5.4,4.7,No
2024/03/14,11:50,5.5,4.8,No
2024/03/14,12:00,5.4,4.8,No
2024/03/14,12:10,5.5,4.8,No
2024/03/14,12:20,5.5,4.7,No
2024/03/14,12:30,5.5,4.8,No
2024/03/14,12:40,5.7,4.8,No
2024/03/14,12:50,5.7,4.8,No
2024/03/14,13:00,5.7,4.9,No
2024/03/14,13:10,5.6,4.8,No
2024/03/14,13:20,5.7,4.9,No
2024/03/14,13:30,5.8,5.0,No
2024/03/14,13:40,5.6,4.8,No
2024/03/14,13:50,5.6,4.7,No
2024/03/14,14:00,5.5,4.7,No
2024/03/14,14:10,5.5,4.8,No
2024/03/14,14:20,5.3,4.7,No
2024/03/14,14:30,5.3,4.8,No
2024/03/14,14:40,5.5,4.8,No
2024/03/14,14:50,5.5,4.8,No
2024/03/14,15:00,5.5,4.8,No
2024/03/14,15:10,5.5,4.7,No
2024/03/14,15:20,5.4,4.8,No
2024/03/14,15:30,5.5,4.7,No
2024/03/14,15:40,5.3,4.7,No
2024/03/14,15:50,5.4,4.7,No
2024/03/14,16:00,5.4,4.9,No
2024/03/14,16:10,5.4,4.7,No
2024/03/14,16:20,5.5,4.6,No
2024/03/14,16:30,5.2,4.6,No
2024/03/14,16:40,5.3,4.7,No
2024/03/14,16:50,5.3,4.6,No
2024/03/14,17:00,5.4,4.7,No
2024/03/14,17:10,5.3,4.6,Yes
2024/03/14,17:20,5.3,4.6,Yes
2024/03/14,17:30,5.2,4.6,No
2024/03/14,17:40,5.3,4.6,No
2024/03/14,17:50,5.2,4.7,No
2024/03/14,18:00,5.3,4.6,No
2024/03/14,18:10,5.2,4.6,No
2024/03/14,18:20,5.4,4.7,No
2024/03/14,18:30,5.2,4.7,No
2024/03/14,18:40,5.3,4.7,No
2024/03/14,18:50,5.4,4.7,No
2024/03/14,19:00,5.3,4.6,No
2024/03/14,19:10,5.3,4.5,No
2024/03/14,19:20,5.3,4.7,No
2024/03/14,19:30,5.3,4.6,No
2024/03/14,19:40,5.3,4.8,No
2024/03/14,19:50,5.2,4.7,No
2024/03/14,20:00,5.4,4.6,No
2024/03/14,20:10,5.3,4.6,No
2024/03/14,20:20,5.3,4.6,No
2024/03/14,20:30,5.4,4.6,No
2024/03/14,20:40,5.3,4.6,No
2024/03/14,20:50,5.2,4.7,No
2024/03/14,21:00,5.3,4.7,No
2024/03/14,21:10,5.2,4.5,No
2024/03/14,21:20,5.3,4.6,No
2024/03/14,21:30,5.4,4.7,No
2024/03/14,21:40,5.4,4.6,No
2024/03/14,21:50,5.3,4.7,No
2024/03/14,22:00,5.2,4.6,No
2024/03/14,22:10,5.3,4.6,No
2024/03/14,22:20,5.3,4.7,No
2024/03/14,22:30,5.3,4.6,No
2024/03/14,22:40,5.3,4.6,No
2024/03/14,22:50,5.5,4.6,No
2024/03/14,23:00,5.3,4.6,No
2024/03/14,23:10,5.4,4.6,No
2024/03/14,23:20,5.4,4.7,No
2024/03/14,23:30,5.3,4.6,No
2024/03/14,23:40,5.3,4.7,No
2024/03/14,23:50,5.5,4.7,No
